EW0608 Weather Reports


time (UTC)temp
C
wind
direction
speed
KPH
gust
KPH
rain 1hr
cm
rain 24hr
cm
rain mn
cm
humidity
%
barometer
mb
20260906171843 23 49 0.0 0.0 0.00 0.00 0.00 76 1015.6
20260906171543 22 49 0.0 0.0 0.00 0.00 0.00 74 1014.6
20260906171339 23 49 0.0 0.0 0.00 0.00 0.00 73 1015.6
20260906170852 23 49 0.0 3.2 0.00 0.00 0.00 68 1015.6
20260906170407 24 49 526.3 526.3 0.00 0.00 0.00 66 1015.4
20260906170057 24 49 1.6 11.3 0.00 0.00 0.00 65 1014.7
20260906165855 25 88 0.0 8.0 0.00 0.00 0.00 63 1015.6
20260906165406 25 234 1.6 8.0 0.00 0.00 0.00 67 1015.6
20260906164913 24 218 3.2 6.4 0.00 0.00 0.00 66 1015.7
20260906164549 24 218 0.0 6.4 0.00 0.00 0.00 66 1014.8
20260906164348 25 218 0.0 6.4 0.00 0.00 0.00 69 1015.8
20260906163841 24 222 3.2 6.4 0.00 0.00 0.00 66 1015.8
20260906163415 24 259 1.6 6.4 0.00 0.00 0.00 70 1015.8
20260906163046 23 74 1.6 8.0 0.00 0.00 0.00 69 1014.9
20260906162846 23 35 1.6 8.0 0.00 0.00 0.00 69 1015.9
20260906162339 23 35 1.6 8.0 0.00 0.00 0.00 71 1015.9
20260906161853 23 61 1.6 6.4 0.00 0.00 0.00 67 1015.9
20260906161506 23 229 1.6 6.4 0.00 0.00 0.00 69 1015.0
20260906161406 23 229 1.6 6.4 0.00 0.00 0.00 69 1016.0
20260906160838 23 242 1.6 8.0 0.00 0.00 0.00 68 1016.1
20260906160351 23 65 3.2 4.8 0.00 0.00 0.00 69 1016.2
20260906160041 23 288 1.6 4.8 0.00 0.00 0.00 70 1015.2
20260906155841 23 201 1.6 4.8 0.00 0.00 0.00 69 1016.1
20260906155354 23 148 1.6 6.4 0.00 0.00 0.00 70 1016.2
20260906154846 23 202 1.6 6.4 0.00 0.00 0.00 69 1016.2
20260906154540 22 36 0.0 0.0 0.00 0.00 0.00 71 1015.2
20260906154339 23 284 0.0 0.0 0.00 0.00 0.00 73 1016.2
20260906153916 22 254 0.0 0.0 0.00 0.00 0.00 70 1016.2
20260906153346 22 54 0.0 0.0 0.00 0.00 0.00 71 1016.2
20260906153039 22 89 0.0 0.0 0.00 0.00 0.00 77 1015.2
20260906152838 22 175 526.3 526.3 0.00 0.00 0.00 77 1016.0
20260906152352 22 175 0.0 0.0 0.00 0.00 0.00 76 1016.2
20260906151846 22 197 0.0 0.0 0.00 0.00 0.00 75 1016.2
20260906151602 22 173 0.0 0.0 0.00 0.00 0.00 76 1015.2
20260906151359 22 346 0.0 0.0 0.00 0.00 0.00 78 1016.1
20260906150852 21 63 0.0 0.0 0.00 0.00 0.00 78 1016.2
20260906150407 21 62 0.0 0.0 0.00 0.00 0.00 79 1016.2
20260906150056 21 107 0.0 0.0 0.00 0.00 0.00 79 1015.2
20260906145854 21 107 0.0 0.0 0.00 0.00 0.00 79 1016.2
20260906145347 21 229 0.0 0.0 0.00 0.00 0.00 80 1016.2
20260906144840 21 229 0.0 0.0 0.00 0.00 0.00 80 1016.2
20260906144519 21 98 0.0 0.0 0.00 0.00 0.00 84 1015.2
20260906144415 21 98 0.0 0.0 0.00 0.00 0.00 84 1016.2
20260906143043 20 43 0.0 0.0 0.00 0.00 0.00 84 1015.2
20260906141540 20 71 0.0 0.0 0.00 0.00 0.00 87 1015.2
20260906140044 18 323 0.0 0.0 0.00 0.00 0.00 88 1015.2
20260906134538 18 88 0.0 0.0 0.00 0.00 0.00 90 1015.1
20260906133043 17 72 0.0 0.0 0.00 0.00 0.00 93 1015.2
20260906131538 16 85 0.0 1.6 0.00 0.00 0.00 94 1015.3
20260906130038 16 97 0.0 0.0 0.00 0.00 0.00 94 1015.3
20260906124538 16 97 0.0 0.0 0.00 0.00 0.00 94 1015.2
20260906123037 16 97 0.0 0.0 0.00 0.00 0.00 94 1015.0
20260906121533 16 97 0.0 0.0 0.00 0.00 0.00 94 1014.8
20260906120029 16 97 0.0 0.0 0.00 0.00 0.00 93 1014.6
20260906114527 16 97 0.0 0.0 0.00 0.00 0.00 93 1014.4
20260906113026 16 97 0.0 0.0 0.00 0.00 0.00 93 1014.1
20260906111523 16 97 0.0 0.0 0.00 0.00 0.00 94 1013.9
20260906110025 16 97 0.0 0.0 0.00 0.00 0.00 94 1013.8
20260906104521 16 97 0.0 0.0 0.00 0.00 0.00 93 1013.7
20260906103039 17 97 0.0 0.0 0.00 0.00 0.00 93 1013.4
20260906101518 17 97 0.0 0.0 0.00 0.00 0.00 93 1013.4
20260906100025 17 97 0.0 0.0 0.00 0.00 0.00 93 1013.3
20260906094513 17 97 0.0 0.0 0.00 0.00 0.00 93 1013.2
20260906093012 17 97 0.0 0.0 0.00 0.00 0.00 93 1013.2
20260906091510 17 97 0.0 0.0 0.00 0.00 0.00 93 1013.1
20260906090008 17 97 0.0 0.0 0.00 0.00 0.00 93 1012.9
20260906084506 17 97 0.0 0.0 0.00 0.00 0.00 93 1012.8
20260906083004 18 97 0.0 0.0 0.00 0.00 0.00 93 1012.6
20260906081502 18 97 0.0 0.0 0.00 0.00 0.00 93 1012.6
20260906074559 18 97 0.0 0.0 0.00 0.00 0.00 93 1012.6
20260906073100 18 97 0.0 0.0 0.00 0.00 0.00 93 1012.5
20260906071557 18 97 0.0 0.0 0.00 0.00 0.00 93 1012.3
20260906070056 18 97 0.0 0.0 0.00 0.00 0.00 93 1012.2
20260906064557 18 97 0.0 0.0 0.00 0.00 0.00 93 1012.4
20260906063053 18 97 0.0 0.0 0.00 0.00 0.00 93 1012.3
20260906061556 19 97 0.0 0.0 0.00 0.00 0.00 93 1012.4
20260906060343 19 97 0.0 0.0 0.00 0.00 0.00 93 1013.3
20260906060100 19 97 0.0 0.0 0.00 0.00 0.00 93 1012.2
20260906055855 20 97 0.0 0.0 0.00 0.00 0.00 93 1013.1
20260906055348 20 97 0.0 0.0 0.00 0.00 0.00 93 1013.1
20260906054840 20 97 0.0 0.0 0.00 0.00 0.00 93 1013.1
20260906054553 19 97 0.0 0.0 0.00 0.00 0.00 93 1012.0
20260906054353 20 97 0.0 0.0 0.00 0.00 0.00 93 1013.1
20260906053845 20 97 0.0 0.0 0.00 0.00 0.00 93 1013.1
20260906053037 20 97 0.0 0.0 0.00 0.00 0.00 93 1012.1
20260906052835 20 97 0.0 0.0 0.00 0.00 0.00 93 1013.1
20260906052347 20 97 0.0 0.0 0.00 0.00 0.00 93 1013.2
20260906051841 20 97 0.0 0.0 0.00 0.00 0.00 93 1013.1
20260906051531 20 97 0.0 0.0 0.00 0.00 0.00 93 1012.1
20260906050909 20 97 0.0 0.0 0.00 0.00 0.00 93 1013.2
20260906050341 20 97 0.0 0.0 0.00 0.00 0.00 93 1013.2
20260906050051 20 97 0.0 0.0 0.00 0.00 0.00 93 1012.2
20260906045850 20 97 0.0 0.0 0.00 0.00 0.00 93 1013.2
20260906045404 20 97 0.0 0.0 0.00 0.00 0.00 93 1013.2
20260906044836 20 97 0.0 0.0 0.00 0.00 0.00 93 1013.1
20260906044510 20 97 0.0 0.0 0.00 0.00 0.00 93 1012.1
20260906044409 21 97 0.0 0.0 0.00 0.00 0.00 93 1013.2
20260906043840 21 97 0.0 0.0 0.00 0.00 0.00 93 1013.3
20260906043337 21 97 0.0 0.0 0.00 0.00 0.00 93 1013.3
20260906043050 20 97 0.0 0.0 0.00 0.00 0.00 93 1012.2
20260906042849 21 97 0.0 0.0 0.00 0.00 0.00 93 1013.2
20260906042343 21 97 0.0 0.0 0.00 0.00 0.00 93 1013.2
20260906041856 21 97 0.0 0.0 0.00 0.00 0.00 93 1013.2
20260906041549 21 97 0.0 0.0 0.00 0.00 0.00 93 1012.2
20260906041348 21 97 0.0 0.0 0.00 0.00 0.00 93 1013.2
20260906040048 21 97 0.0 0.0 0.00 0.00 0.00 93 1012.4
20260906035848 21 97 0.0 0.0 0.00 0.00 0.00 93 1013.5
20260906034844 21 97 0.0 0.0 0.00 0.00 0.00 93 1013.1
20260906034602 21 97 0.0 0.0 0.00 0.00 0.00 93 1012.4
20260906034354 21 97 0.0 0.0 0.00 0.00 0.00 93 1013.4
20260906033847 21 97 0.0 0.0 0.00 0.00 0.00 93 1013.4
20260906033359 21 97 0.0 0.0 0.00 0.00 0.00 93 1013.4
20260906033013 21 97 0.0 0.0 0.00 0.00 0.00 93 1012.5
20260906032912 21 97 0.0 0.0 0.00 0.00 0.00 93 1013.5
20260906032343 21 97 0.0 0.0 0.00 0.00 0.00 92 1013.5
20260906031837 21 97 0.0 0.0 0.00 0.00 0.00 93 1013.5
20260906031550 21 97 0.0 0.0 0.00 0.00 0.00 93 1012.3
20260906031349 21 97 0.0 0.0 0.00 0.00 0.00 93 1013.4
20260906030841 21 97 0.0 0.0 0.00 0.00 0.00 93 1013.4
20260906030034 21 97 0.0 0.0 0.00 0.00 0.00 93 1012.3
20260906025343 21 97 0.0 0.0 0.00 0.00 0.00 93 1013.3
20260906024836 21 97 0.0 0.0 0.00 0.00 0.00 93 1013.3
20260906024549 21 97 0.0 0.0 0.00 0.00 0.00 93 1012.2
20260906024348 21 97 0.0 0.0 0.00 0.00 0.00 93 1013.3
20260906023841 21 97 0.0 0.0 0.00 0.00 0.00 93 1013.2
20260906023413 21 97 0.0 0.0 0.00 0.00 0.00 92 1013.2
20260906023050 21 97 0.0 0.0 0.00 0.00 0.00 92 1012.0
20260906022844 21 97 0.0 0.0 0.00 0.00 0.00 92 1013.0
20260906022337 21 97 0.0 0.0 0.00 0.00 0.00 92 1013.0
20260906021850 21 97 0.0 0.0 0.00 0.00 0.00 92 1013.0
20260906021547 21 97 0.0 0.0 0.00 0.00 0.00 92 1011.8
20260906021343 21 97 0.0 0.0 0.00 0.00 0.00 92 1012.9
20260906020840 21 97 0.0 0.0 0.00 0.00 0.00 92 1012.8
20260906020355 22 97 0.0 0.0 0.00 0.00 0.00 92 1012.8
20260906020045 21 97 0.0 0.0 0.00 0.00 0.00 92 1011.7
20260906015844 22 97 0.0 0.0 0.00 0.00 0.00 92 1012.8
20260906015357 22 97 0.0 0.0 0.00 0.00 0.00 92 1012.8
20260906014847 22 97 0.0 0.0 0.00 0.00 0.00 92 1012.7
20260906014548 21 97 0.0 0.0 0.00 0.00 0.00 92 1011.6
20260906014341 22 97 0.0 0.0 0.00 0.00 0.00 92 1012.6
20260906013855 22 97 0.0 0.0 0.00 0.00 0.00 92 1012.6
20260906013406 22 97 0.0 0.0 0.00 0.00 0.00 92 1012.6
20260906013044 22 97 0.0 0.0 0.00 0.00 0.00 92 1011.5
20260906012838 22 97 0.0 0.0 0.00 0.00 0.00 92 1012.5
20260906012351 22 97 0.0 0.0 0.00 0.00 0.00 92 1012.6
20260906011902 22 97 0.0 0.0 0.00 0.00 0.00 92 1012.5
20260906011515 22 97 0.0 0.0 0.00 0.00 0.00 92 1011.3
20260906011414 22 97 0.0 0.0 0.00 0.00 0.00 92 1012.4
20260906010845 22 97 0.0 0.0 0.00 0.00 0.00 92 1012.4
20260906010358 22 97 0.0 0.0 0.00 0.00 0.00 92 1012.3
20260906010013 22 97 0.0 0.0 0.00 0.00 0.00 92 1011.2
20260906005908 22 97 0.0 0.0 0.00 0.00 0.00 92 1012.3
20260906005340 22 97 0.0 0.0 0.00 0.00 0.00 92 1012.2
20260906004854 22 97 0.0 0.0 0.00 0.00 0.00 92 1012.0
20260906004546 22 97 0.0 0.0 0.00 0.00 0.00 92 1010.9
20260906004347 22 97 0.0 0.0 0.00 0.00 0.00 92 1012.0
20260906003840 22 97 0.0 0.0 0.00 0.00 0.00 92 1012.1
20260906003352 22 97 0.0 0.0 0.00 0.00 0.00 92 1012.2
20260906003046 22 97 0.0 0.0 0.00 0.00 0.00 92 1011.0
20260906002845 22 97 0.0 0.0 0.00 0.00 0.00 92 1012.1
20260906002337 22 97 0.0 0.0 0.00 0.00 0.00 91 1011.9
20260906001850 22 97 526.3 526.3 0.00 0.00 0.00 91 1011.7
20260906001543 22 97 0.0 0.0 0.00 0.00 0.00 91 1010.7
20260906001343 22 97 0.0 0.0 0.00 0.00 0.00 91 1011.9
20260906000837 22 97 0.0 0.0 0.00 0.00 0.00 91 1011.9
20260906000350 22 97 0.0 0.0 0.00 0.00 0.00 91 1011.6
20260906000041 22 97 0.0 0.0 0.00 0.00 0.00 91 1010.5
20260905235840 22 97 0.0 0.0 0.00 0.00 0.00 91 1011.6
20260905235336 23 97 0.0 0.0 0.00 0.00 0.00 91 1011.6
20260905234849 23 97 0.0 0.0 0.00 0.00 0.00 91 1011.7
20260905234543 22 97 0.0 0.0 0.00 0.00 0.00 91 1010.6
20260905234342 23 97 0.0 0.0 0.00 0.00 0.00 91 1011.6
20260905233835 23 97 0.0 0.0 0.00 0.00 0.00 90 1011.7
20260905233347 23 97 0.0 0.0 0.00 0.00 0.00 90 1011.7
20260905233041 23 97 0.0 0.0 0.00 0.00 0.00 91 1010.5
20260905232841 23 97 0.0 0.0 0.00 0.00 0.00 91 1011.7
20260905232413 23 97 0.0 0.0 0.00 0.00 0.00 91 1011.7
20260905231843 23 97 0.0 0.0 0.00 0.00 0.00 90 1011.7
20260905231555 23 97 0.0 0.0 0.00 0.00 0.00 90 1010.6
20260905231355 23 97 0.0 0.0 0.00 0.00 0.00 90 1011.6
20260905230908 23 97 0.0 0.0 0.00 0.00 0.00 90 1011.6
20260905230340 23 97 0.0 0.0 0.00 0.00 0.00 90 1011.5
20260905230050 23 97 0.0 0.0 0.00 0.00 0.00 90 1010.4
20260905225849 23 97 0.0 0.0 0.00 0.00 0.00 90 1011.5
20260905225343 23 97 0.0 0.0 0.00 0.00 0.00 90 1011.6
20260905224855 23 122 0.0 0.0 0.00 0.00 0.00 90 1011.4
20260905224549 23 121 0.0 0.0 0.00 0.00 0.00 90 1010.2
20260905224348 23 122 0.0 0.0 0.00 0.00 0.00 90 1011.3
20260905223840 23 122 0.0 0.0 0.00 0.00 0.00 90 1011.3
20260905223352 23 227 0.0 0.0 0.00 0.00 0.00 90 1011.3
20260905223007 23 227 0.0 0.0 0.00 0.00 0.00 90 1010.2
20260905222906 23 63 0.0 0.0 0.00 0.00 0.00 90 1011.3
20260905222338 23 63 0.0 0.0 0.00 0.00 0.00 89 1011.2
20260905221850 23 63 0.0 0.0 0.00 0.00 0.00 89 1011.1
20260905221544 23 63 0.0 0.0 0.00 0.00 0.00 89 1010.1
20260905221343 23 63 0.0 0.0 0.00 0.00 0.00 89 1011.2
20260905220856 23 63 0.0 0.0 0.00 0.00 0.00 89 1011.1
20260905220350 23 63 0.0 0.0 0.00 0.00 0.00 89 1011.1
20260905220042 23 63 0.0 0.0 0.00 0.00 0.00 89 1010.0
20260905215840 23 63 0.0 0.0 0.00 0.00 0.00 88 1011.0
20260905215414 23 63 0.0 0.0 0.00 0.00 0.00 88 1011.0
20260905214846 23 63 0.0 0.0 0.00 0.00 0.00 89 1010.9
20260905214538 23 63 0.0 0.0 0.00 0.00 0.00 89 1009.8
20260905214338 23 63 0.0 0.0 0.00 0.00 0.00 89 1010.9
20260905213912 23 63 0.0 0.0 0.00 0.00 0.00 90 1010.9
20260905213342 23 63 0.0 1.6 0.00 0.00 0.00 90 1010.8
20260905213036 22 63 0.0 1.6 0.00 0.00 0.00 90 1009.7
20260905212836 23 63 0.0 1.6 0.00 0.00 0.00 91 1010.8
20260905212350 23 63 0.0 0.0 0.00 0.00 0.00 91 1010.6
20260905211522 22 63 0.0 0.0 0.00 0.00 0.00 91 1009.4
20260905210019 22 63 0.0 1.6 0.00 0.00 0.00 90 1009.3
20260905204519 22 63 0.0 1.6 0.00 0.00 0.00 90 1009.6
20260905203018 22 132 0.0 1.6 0.00 0.00 0.00 89 1009.9
20260905201519 23 80 1.6 4.8 0.00 0.00 0.00 87 1009.9
20260905200024 23 11 1.6 6.4 0.00 0.00 0.00 83 1010.1
20260905194517 26 88 0.0 1.6 0.00 0.00 0.00 84 1009.8
20260905193015 26 231 0.0 0.0 0.00 0.00 0.00 81 1009.6
20260905191513 26 80 0.0 0.0 0.00 0.00 0.00 87 1009.8
20260905190010 25 246 0.0 0.0 0.00 0.00 0.00 91 1010.0
20260905184519 25 246 0.0 0.0 0.00 0.00 0.00 89 1010.2
20260905183007 25 246 0.0 0.0 0.00 0.00 0.00 92 1010.2
20260905181505 24 246 0.0 0.0 0.00 0.00 0.00 90 1010.4
20260905180007 25 246 0.0 0.0 0.00 0.00 0.00 89 1010.6
20260905174502 24 229 0.0 0.0 0.00 0.00 0.00 92 1010.7
20260905173059 23 229 0.0 0.0 0.00 0.00 0.00 93 1010.9